Taegu AB current weather conditions

sailwx.info

Wind from 290 at 11 knots

Air temperature 2.0° C
Dewpoint -18.0° C

Last reported at 2015-Feb-27 04:00 UTC.
Time now 2015-Feb-27 06:04 UTC

Location: N 35°54' E 128°39'.
View on Google Maps.

See reports from other nearby stations

  
Tides and Currents Weather Stations Pressure Air Temp Water Temp Dewpoint Dewpoint Depression Visibility Wind Speed Wind Dir Waves Ship Positions
date/time (UTC)wind fromknots sea level pressurealtimeterstation pressurevisibilityair tempwater tempwave heightnotes
2015-Feb-27 04:00 290 11 2.0
2015-Feb-27 03:00 320 12 2.0
2015-Feb-27 02:00 300 12 1.0
2015-Feb-27 01:00 310 16 5.4-0.0
2015-Feb-27 00:00 310 12 5.4-1.0
2015-Feb-26 23:00 330 6 5.4-2.0
2015-Feb-26 22:00 310 6 5.4-3.0
2015-Feb-26 21:00 310 9 -2.0
2015-Feb-26 20:00 310 12 -2.0
2015-Feb-26 19:00 310 14 5.4-2.0
2015-Feb-26 18:00 310 14 5.4-2.0
2015-Feb-26 17:00 300 7 gusting 17 5.4-0.0
2015-Feb-26 14:00 310 7 gusting 17 5.4 1.0
2015-Feb-26 13:00 290 12 2.0
2015-Feb-26 12:00 280 8 gusting 18 3.0
2015-Feb-26 11:00 310 16 gusting 29 4.0
2015-Feb-26 10:00 300 18 gusting 27 5.0
2015-Feb-26 09:00 310 16 gusting 26 7.0
2015-Feb-26 08:00 310 16 gusting 26 9.0
2015-Feb-26 07:00 290 11 gusting 20 5.4 9.0
2015-Feb-26 06:00 330 18 gusting 27 5.4 9.0
2015-Feb-26 05:00 320 20 gusting 33 5.410.0
2015-Feb-26 04:00 300 17 gusting 27 4.910.0
2015-Feb-26 03:00 270 9 4.9 9.0
2015-Feb-26 02:00 260 4 4.9 7.0
2015-Feb-26 01:00 320 6 4.3 6.0
2015-Feb-26 00:00 320 2 4.3 5.0
2015-Feb-25 23:00 340 1 4.9 3.0
2015-Feb-25 22:00 110 2 4.9 2.0
2015-Feb-25 21:00 310 1 4.9 2.0
2015-Feb-25 20:00 350 2 1.0
2015-Feb-25 19:00 050 1 5.4 3.0
2015-Feb-25 18:00 050 1 5.4 3.0
2015-Feb-25 17:00 010 1 5.4 3.0
2015-Feb-25 16:00 290 1 5.4 4.0
2015-Feb-25 15:00 310 1 5.4 4.0
2015-Feb-25 14:00 290 1 5.0
2015-Feb-25 13:00 070 1 5.0
2015-Feb-25 12:00 060 1 6.0
2015-Feb-25 11:00 110 1 7.0
2015-Feb-25 10:00 040 1 9.0
2015-Feb-25 09:00 340 2 10.0
2015-Feb-25 08:00 320 3 11.0
2015-Feb-25 07:00 320 3 11.0
2015-Feb-25 06:00 300 3 10.0